Location: Helsinki
(60.1699°N, 24.9384°E)
Time: 17:45:52
(UTC+02:00)

S-56A Canister/Altair - Pass Details

Date: 02 November 2020
Orbit: 633 x 2500 km, 38.9° (Epoch: 29 November)

Event Time Altitude Azimuth Distance (km) Brightness Sun altitude
Rises 08:32:02 0° 240° (WSW) 3,665 10.8 3.8°
Reaches altitude 10° 08:36:35 10° 209° (SSW) 3,096 10.8 4.2°
Maximum altitude 08:39:05 12° 190° (S) 3,170 11.2 4.5°
Drops below altitude 10° 08:41:53 10° 171° (S) 3,548 11.8 4.7°
Sets 08:48:18 0° 145° (SE) 5,052 13.8 5.3°
